When you browse on this site, cookies collect data to enhance your experience and personalize the content and advertising you see.
Visit our Privacy Policy to learn more. By continuing to use the site, you agree to this use of cookies and data.
  • In Österreich
  • Länderverzeichnis
  • Für 7 Tage
  • Wassertemperatur
  • Satellitenkarten
  • Wetterkarte
  • News
  • Widgets
  • user-avatar
    Anmelden

    Stündliche Wetter Carmen

    Heute, 12 Dezember, Mittwoch

    Zeit Temperatur Niederschläge Wind Luftdruck Luftfeuchtigkeit
    00:00 +19°C° 0 mm 4 m/S 766 mmHg 88%
    01:00 +19°C° 0 mm 5 m/S 766 mmHg 87%
    02:00 +19°C° 0 mm 5 m/S 766 mmHg 86%
    03:00 +19°C° 0 mm 5 m/S 765 mmHg 85%
    04:00 +19°C° 0 mm 5 m/S 765 mmHg 84%
    05:00 +18°C° 0 mm 4 m/S 765 mmHg 84%
    06:00 +18°C° 0 mm 4 m/S 765 mmHg 83%
    07:00 +19°C° 0 mm 4 m/S 765 mmHg 80%
    08:00 +20°C° 0 mm 4 m/S 766 mmHg 76%
    09:00 +21°C° 0 mm 4 m/S 766 mmHg 73%
    10:00 +22°C° 0 mm 4 m/S 765 mmHg 69%
    11:00 +25°C° 0 mm 3 m/S 765 mmHg 66%
    12:00 +26°C° 0 mm 3 m/S 764 mmHg 62%
    13:00 +26°C° 0 mm 3 m/S 763 mmHg 62%
    14:00 +27°C° 0 mm 3 m/S 762 mmHg 62%
    15:00 +27°C° 0 mm 2 m/S 761 mmHg 62%
    16:00 +26°C° 0 mm 2 m/S 761 mmHg 66%
    17:00 +24°C° 0 mm 2 m/S 761 mmHg 71%
    18:00 +23°C° 0 mm 2 m/S 761 mmHg 76%
    19:00 +22°C° 0 mm 3 m/S 761 mmHg 76%
    20:00 +22°C° 0 mm 3 m/S 761 mmHg 76%
    21:00 +21°C° 0 mm 3 m/S 761 mmHg 76%
    22:00 +21°C° 0 mm 4 m/S 761 mmHg 77%
    23:00 +21°C° 0 mm 4 m/S 761 mmHg 77%

    Morgen, 13 Dezember, Donnerstag

    Zeit Temperatur Niederschläge Wind Luftdruck Luftfeuchtigkeit
    00:00 +21°C° 0 mm 4 m/S 761 mmHg 78%
    01:00 +21°C° 0 mm 4 m/S 760 mmHg 79%
    02:00 +21°C° 0 mm 4 m/S 760 mmHg 79%
    03:00 +20°C° 0 mm 5 m/S 760 mmHg 80%
    04:00 +20°C° 0 mm 5 m/S 760 mmHg 82%
    05:00 +20°C° 0 mm 6 m/S 760 mmHg 83%
    06:00 +20°C° 0 mm 6 m/S 760 mmHg 84%
    07:00 +22°C° 0 mm 6 m/S 760 mmHg 81%
    08:00 +23°C° 0 mm 6 m/S 760 mmHg 77%
    09:00 +24°C° 0 mm 7 m/S 760 mmHg 73%
    10:00 +27°C° 0 mm 5 m/S 760 mmHg 69%
    11:00 +29°C° 0 mm 4 m/S 759 mmHg 64%
    12:00 +31°C° 0 mm 3 m/S 759 mmHg 59%
    13:00 +31°C° 0 mm 2 m/S 758 mmHg 59%
    14:00 +31°C° 0 mm 2 m/S 758 mmHg 59%
    15:00 +32°C° 0 mm 1 m/S 757 mmHg 59%
    16:00 +30°C° 0 mm 1 m/S 757 mmHg 66%
    17:00 +28°C° 0 mm 1 m/S 758 mmHg 73%
    18:00 +26°C° 0 mm 1 m/S 758 mmHg 81%
    19:00 +26°C° 0 mm 2 m/S 759 mmHg 82%
    20:00 +25°C° 0 mm 2 m/S 759 mmHg 84%
    21:00 +25°C° 0 mm 2 m/S 760 mmHg 86%
    22:00 +25°C° 0.1 mm 3 m/S 760 mmHg 85%
    23:00 +25°C° 0.1 mm 3 m/S 760 mmHg 84%

    übermorgen, 14 Dezember, Freitag

    Zeit Temperatur Niederschläge Wind Luftdruck Luftfeuchtigkeit
    00:00 +24°C° 0.1 mm 3 m/S 761 mmHg 83%
    01:00 +23°C° 0.3 mm 4 m/S 761 mmHg 84%
    02:00 +23°C° 0.3 mm 5 m/S 761 mmHg 85%
    03:00 +23°C° 0.3 mm 6 m/S 761 mmHg 86%
    04:00 +23°C° 0.9 mm 6 m/S 761 mmHg 89%
    05:00 +23°C° 0.9 mm 7 m/S 762 mmHg 91%
    06:00 +22°C° 0.9 mm 7 m/S 762 mmHg 94%
    07:00 +22°C° 0.5 mm 8 m/S 763 mmHg 90%
    08:00 +22°C° 0.5 mm 8 m/S 764 mmHg 87%
    09:00 +22°C° 0.5 mm 9 m/S 765 mmHg 84%
    10:00 +23°C° 0 mm 9 m/S 766 mmHg 79%
    11:00 +23°C° 0 mm 9 m/S 766 mmHg 74%
    12:00 +23°C° 0 mm 9 m/S 766 mmHg 69%
    13:00 +23°C° 0 mm 8 m/S 766 mmHg 69%
    14:00 +23°C° 0 mm 8 m/S 765 mmHg 70%
    15:00 +22°C° 0 mm 7 m/S 765 mmHg 70%
    16:00 +22°C° 0 mm 7 m/S 765 mmHg 69%
    17:00 +22°C° 0 mm 7 m/S 766 mmHg 69%
    18:00 +21°C° 0 mm 6 m/S 766 mmHg 68%
    19:00 +21°C° 0 mm 6 m/S 767 mmHg 69%
    20:00 +20°C° 0 mm 6 m/S 767 mmHg 69%
    21:00 +20°C° 0 mm 5 m/S 768 mmHg 70%
    22:00 +20°C° 0 mm 5 m/S 767 mmHg 71%
    23:00 +19°C° 0 mm 5 m/S 767 mmHg 73%

    15 Dezember, Samstag

    Zeit Temperatur Niederschläge Wind Luftdruck Luftfeuchtigkeit
    00:00 +19°C° 0 mm 4 m/S 767 mmHg 74%
    01:00 +19°C° 0 mm 4 m/S 767 mmHg 75%
    02:00 +18°C° 0 mm 4 m/S 767 mmHg 76%
    03:00 +18°C° 0 mm 4 m/S 766 mmHg 77%
    04:00 +18°C° 0 mm 4 m/S 767 mmHg 77%
    05:00 +18°C° 0 mm 4 m/S 767 mmHg 77%
    06:00 +18°C° 0 mm 4 m/S 767 mmHg 77%
    07:00 +19°C° 0 mm 3 m/S 768 mmHg 73%
    08:00 +21°C° 0 mm 3 m/S 768 mmHg 68%
    09:00 +22°C° 0 mm 3 m/S 769 mmHg 64%
    10:00 +24°C° 0 mm 3 m/S 768 mmHg 58%
    11:00 +25°C° 0 mm 3 m/S 768 mmHg 53%
    12:00 +27°C° 0 mm 3 m/S 767 mmHg 47%
    13:00 +27°C° 0 mm 3 m/S 767 mmHg 48%
    14:00 +26°C° 0 mm 3 m/S 766 mmHg 49%
    15:00 +26°C° 0 mm 3 m/S 765 mmHg 49%
    16:00 +25°C° 0 mm 3 m/S 766 mmHg 54%
    17:00 +22°C° 0 mm 3 m/S 766 mmHg 59%
    18:00 +21°C° 0 mm 3 m/S 766 mmHg 64%
    19:00 +20°C° 0 mm 3 m/S 767 mmHg 66%
    20:00 +20°C° 0 mm 2 m/S 767 mmHg 68%
    21:00 +19°C° 0 mm 2 m/S 767 mmHg 70%
    22:00 +19°C° 0 mm 2 m/S 767 mmHg 72%
    23:00 +20°C° 0 mm 1 m/S 767 mmHg 73%

    16 Dezember, Sonntag

    Zeit Temperatur Niederschläge Wind Luftdruck Luftfeuchtigkeit
    00:00 +19°C° 0 mm 1 m/S 767 mmHg 75%
    01:00 +19°C° 0 mm 1 m/S 767 mmHg 77%
    02:00 +19°C° 0 mm 1 m/S 766 mmHg 78%
    03:00 +18°C° 0 mm 1 m/S 766 mmHg 80%
    04:00 +17°C° 0 mm 2 m/S 766 mmHg 81%
    05:00 +17°C° 0 mm 2 m/S 767 mmHg 82%
    06:00 +17°C° 0 mm 2 m/S 767 mmHg 83%
    07:00 +19°C° 0 mm 2 m/S 768 mmHg 79%
    08:00 +20°C° 0 mm 2 m/S 768 mmHg 75%
    09:00 +21°C° 0 mm 2 m/S 768 mmHg 71%
    10:00 +24°C° 0 mm 2 m/S 768 mmHg 66%
    11:00 +26°C° 0 mm 1 m/S 767 mmHg 61%
    12:00 +27°C° 0 mm 1 m/S 767 mmHg 56%
    13:00 +27°C° 0 mm 1 m/S 766 mmHg 57%
    14:00 +26°C° 0 mm 2 m/S 766 mmHg 58%
    15:00 +26°C° 0 mm 2 m/S 765 mmHg 59%
    16:00 +25°C° 0 mm 2 m/S 765 mmHg 64%
    17:00 +22°C° 0 mm 3 m/S 766 mmHg 70%
    18:00 +21°C° 0 mm 3 m/S 766 mmHg 75%
    19:00 +20°C° 0 mm 3 m/S 766 mmHg 76%
    20:00 +20°C° 0 mm 3 m/S 767 mmHg 78%
    21:00 +20°C° 0 mm 3 m/S 767 mmHg 79%
    22:00 +20°C° 0 mm 3 m/S 767 mmHg 79%
    23:00 +19°C° 0 mm 3 m/S 767 mmHg 79%

    17 Dezember, Montag

    Zeit Temperatur Niederschläge Wind Luftdruck Luftfeuchtigkeit
    00:00 +19°C° 0 mm 3 m/S 767 mmHg 78%
    01:00 +19°C° 0 mm 3 m/S 766 mmHg 80%
    02:00 +19°C° 0 mm 2 m/S 766 mmHg 81%
    03:00 +19°C° 0 mm 2 m/S 766 mmHg 82%
    04:00 +19°C° 0 mm 2 m/S 766 mmHg 84%
    05:00 +19°C° 0 mm 2 m/S 767 mmHg 85%
    06:00 +19°C° 0 mm 2 m/S 767 mmHg 86%
    07:00 +19°C° 0 mm 2 m/S 767 mmHg 83%
    08:00 +20°C° 0 mm 2 m/S 768 mmHg 80%
    09:00 +21°C° 0 mm 2 m/S 768 mmHg 78%
    10:00 +23°C° 0.1 mm 2 m/S 767 mmHg 74%
    11:00 +25°C° 0.1 mm 1 m/S 767 mmHg 69%
    12:00 +26°C° 0.1 mm 1 m/S 766 mmHg 65%
    13:00 +26°C° 0 mm 1 m/S 766 mmHg 64%
    14:00 +26°C° 0 mm 2 m/S 765 mmHg 63%
    15:00 +26°C° 0 mm 2 m/S 764 mmHg 62%
    16:00 +24°C° 0 mm 2 m/S 765 mmHg 67%
    17:00 +22°C° 0 mm 3 m/S 765 mmHg 71%
    18:00 +21°C° 0 mm 3 m/S 765 mmHg 76%
    19:00 +21°C° 0 mm 3 m/S 765 mmHg 76%
    20:00 +20°C° 0 mm 3 m/S 766 mmHg 76%
    21:00 +20°C° 0 mm 3 m/S 766 mmHg 76%
    22:00 +20°C° 0 mm 3 m/S 766 mmHg 76%
    23:00 +20°C° 0 mm 3 m/S 765 mmHg 77%
    Mehr zeigen